Flag for Syria Weather past 2 weeks in Aleppo, Syria

Now
84 °F

Scattered clouds.


Feels Like: 84 °F
Forecast: 71 / 99 °F
Wind: 2 mph from Northeast

Location: Iskenderun

Current Time: Aug 30, 2015 at 7:16:39 PM

Latest Report: Aug 30, 2015 at 6:00 PM


Visibility: 9 mi

Pressure: 29.81 "Hg

Humidity: 39%

Dew point: 57 °F

Location of AleppoLocation

Historic Weather in Aleppo — Graph

°F

Aleppo temperature yesterday

Maximum temperature yesterday: 90 °F (at 3:00 PM)
Minimum temperature yesterday: 80 °F (at 6:00 AM)
Average temperature yesterday: 85 °F

Past Weeks' High & Low Weather Summary

 TemperatureHumidityPressure
High92 °F (Aug 26, 4:00 PM)90% (Aug 30, 3:00 PM)29.87 "Hg (Aug 30, 3:00 PM)
Low72 °F (Aug 30, 4:00 PM)17% (Aug 26, 4:00 PM)29.67 "Hg (Aug 23, 5:00 PM)
Average87 °F59%29.77 "Hg
* Reported Aug 15 6:00 PM — Aug 30 6:00 PM, Aleppo, Weather by CustomWeather, © 2015

Note: Actual official high and low records may vary slightly from our data, if they occured in-between our weather recording intervals... More about our weather records

Advertising

Aleppo weather history for previous 24 hours

 ConditionsComfort  
Time TempWeatherWind HumidityBarometerVisibility
6:00 PM
Sun, Aug 30
84 °FScattered clouds.2 mph39%29.81 "Hg9 mi
5:00 PM84 °FThunderstorms. Scattered clouds.1 mph45%29.80 "Hg12 mi
4:00 PM72 °FThundershowers. Overcast.2 mph69%29.82 "Hg9 mi
3:00 PM73 °FThundershowers. Overcast.3 mph90%29.87 "Hg6 mi
2:00 PM87 °FThunderstorms. Partly sunny.3 mph55%29.81 "Hg9 mi
1:00 PM88 °FScattered clouds.5 mph53%29.83 "Hg9 mi
12:00 PM88 °FScattered clouds.5 mph56%29.83 "Hg9 mi
11:00 AM87 °FPassing clouds.6 mph58%29.83 "Hg12 mi
10:00 AM86 °FScattered clouds.3 mph58%29.83 "Hg9 mi
9:00 AM86 °FScattered clouds.1 mph56%29.82 "Hg9 mi
6:00 AM80 °FPassing clouds.1 mph51%29.80 "Hg12 mi
3:00 AM82 °FClear.2 mph51%29.79 "Hg12 mi
12:00 AM83 °FClear.1 mph56%29.82 "Hg12 mi
9:00 PM
Sat, Aug 29
85 °FPassing clouds.1 mph57%29.81 "Hg12 mi
8:00 PM85 °FPassing clouds.2 mph60%29.81 "Hg12 mi
7:00 PM86 °FPassing clouds.3 mph60%29.80 "Hg12 mi
Weather by CustomWeather, © 2015

See weather overviewHow to use our weather pages